Lid_Strength_Index
8 12 14 12 11 10 11 13 13 12 10 11 12 12 11 9 10 11 10 9 10 9 5 3 3 3 3 2 2 2 2 2 2 4 4 4 4 3 3 3 1 1 1 1
10 13 10 9 9 10 11 13 13 10 9 11 11 11 10 9 9 9 9 9 9 9 7 4 4 3 3 3 2 2 2 3 2 4 4 4 3 2 2 1 0 -0 0 2
12 10 8 9 10 10 11 13 13 12 10 10 11 13 11 9 9 9 9 8 8 8 8 5 4 3 5 4 3 2 2 2 2 2 3 4 2 3 5 3 1 0 -0 1
10 8 9 9 10 10 13 10 11 10 12 16 11 17 13 10 9 9 9 10 9 8 8 4 4 4 5 5 3 2 2 2 2 3 4 5 5 4 4 4 2 1 1 0
11 10 10 11 10 9 12 9 10 10 13 14 14 16 14 11 11 10 8 7 7 7 7 7 4 4 4 4 2 2 2 2 3 5 4 4 5 3 3 5 3 1 0 0
9 6 8 8 7 8 8 10 10 11 14 17 15 15 15 13 11 10 8 7 6 6 5 5 4 4 4 2 2 2 2 3 2 2 2 2 3 3 4 3 3 2 2 2
11 10 7 7 9 8 9 13 17 18 18 18 13 15 14 11 9 8 8 8 7 7 6 6 5 5 4 3 4 5 5 6 6 5 4 4 4 4 5 5 5 6 5 5
15 16 10 7 9 11 12 12 17 19 18 17 12 15 13 10 8 7 7 7 6 6 6 5 5 4 5 5 4 4 4 5 5 4 4 4 4 5 5 5 5 5 6 5
15 14 8 7 7 9 11 13 11 14 14 15 15 14 10 9 9 8 8 7 7 7 6 6 6 5 5 5 5 5 5 5 5 4 5 4 4 5 6 5 5 5 6 5
12 15 9 8 7 8 10 9 13 15 19 20 16 17 17 13 12 10 9 8 8 7 6 6 5 5 5 5 5 5 5 6 5 4 4 4 4 4 5 5 5 5 6 5
11 14 13 10 11 12 12 12 13 12 14 18 21 19 11 12 10 10 9 8 8 8 7 7 7 7 6 6 6 6 6 6 5 5 5 6 6 5 5 5 5 6 6 6
10 13 17 14 10 9 11 13 12 16 19 17 17 18 10 10 9 9 8 7 8 7 8 8 8 8 8 8 7 7 7 6 7 6 6 5 6 6 6 6 6 6 6 6
10 14 18 15 12 10 12 11 11 12 14 17 19 18 9 9 9 8 8 7 7 7 7 7 7 7 8 8 8 8 8 7 7 6 6 6 6 6 6 6 6 6 6 7
9 13 16 18 15 12 13 11 10 12 17 17 16 15 12 11 10 9 8 7 8 8 7 7 7 7 7 7 7 7 7 7 7 6 7 7 6 7 7 7 7 7 7 7
11 15 13 13 12 11 12 11 11 13 13 15 15 15 12 10 10 9 7 7 8 8 8 8 8 8 8 8 8 7 7 7 7 7 7 7 7 7 7 8 8 7 7 7
10 15 13 14 12 12 13 11 11 11 12 12 13 14 9 8 8 8 7 7 9 9 8 8 8 8 9 8 8 8 8 8 8 8 7 7 8 8 8 8 8 8 8 8
12 14 15 18 13 13 16 14 12 12 11 12 15 12 9 9 9 8 7 9 10 10 10 9 9 9 10 9 8 9 8 8 8 8 7 7 8 8 8 8 8 8 9 9
12 14 14 17 15 21 14 10 10 11 11 10 11 10 9 8 9 8 9 10 10 11 11 11 11 11 11 10 9 9 9 9 9 9 9 8 8 8 8 9 9 9 9 9
10 12 16 18 18 15 13 11 11 13 13 9 10 9 9 10 11 11 10 11 12 12 12 12 11 11 11 11 10 10 10 10 10 10 10 9 9 8 7 9 9 9 9 9
10 11 14 16 19 21 14 9 7 8 16 9 9 10 11 9 14 14 12 12 13 13 12 12 11 11 12 12 12 12 12 12 12 11 10 9 7 7 8 9 9 8 8 8
14 14 16 16 18 15 10 8 7 16 15 9 10 11 11 13 13 13 13 13 13 13 12 12 12 13 13 13 13 13 12 12 10 10 10 9 7 7 9 8 8 8 8 7
15 16 16 15 17 19 8 8 13 12 11 11 11 12 13 13 13 13 13 13 13 13 13 13 13 13 13 13 11 12 12 11 11 11 10 9 9 9 9 10 9 7 7 8
15 13 15 13 14 11 10 11 11 11 12 12 12 12 12 13 13 13 14 14 14 13 13 13 14 13 13 12 12 12 12 12 12 12 11 10 10 11 12 11 9 8 7 8
10 8 12 13 12 12 11 11 10 10 11 11 11 11 12 13 14 14 14 14 14 13 14 13 14 14 14 13 12 12 12 11 12 12 12 12 13 13 13 11 10 9 8 7
10 9 13 13 12 12 11 11 10 10 10 10 11 11 12 13 14 14 14 14 14 14 14 14 14 13 13 12 12 11 11 11 13 12 13 13 13 14 13 12 11 9 7 7
9 11 13 14 11 12 11 10 10 11 11 11 12 12 12 13 14 13 14 13 13 14 13 13 13 13 12 12 12 12 12 12 14 14 14 14 13 14 13 13 12 10 9 9